Weather History for Coleman, TX

Change the Weather History Date:

Thursday, October 4, 2012

  Actual Average (KABI) Record (KABI)
Temperature  
Mean Temperature 70 °F 69 °F  
Max Temperature 81 °F 81 °F 98 °F (1951)
Min Temperature 59 °F 58 °F 43 °F (1902)
Degree Days  
Heating Degree Days 0 1  
Month to date heating degree days 4  
Since 1 July heating degree days 15  
Cooling Degree Days 5 6  
Month to date cooling degree days 25  
Year to date cooling degree days 2296  
Growing Degree Days 20 (Base 50)    
Moisture  
Dew Point 59 °F    
Average Humidity 74    
Maximum Humidity 94    
Minimum Humidity 54    
Precipitation  
Precipitation 0.00 in 0.08 in 2.09 in (1986)
Month to date precipitation 0.34  
Year to date precipitation 19.54  
Sea Level Pressure  
Sea Level Pressure 30.07 in    
Wind  
Wind Speed 6 mph (ESE)    
Max Wind Speed 15 mph    
Max Gust Speed 21 mph    
Visibility 10 miles    
Events      
T = Trace of Precipitation, MM = Missing Value Source: NWS Daily Summary

Daily Weather History Graph

Daily Weather History Graph

Search for Another Location

Airport:

Trip Planner

Search our weather history database for the weather conditions in past years. The results will help you decide how hot, cold, wet, or windy it might be!

Date:

Astronomy

Oct. 04, 2012 Rise Set
Actual Time 7:33 AM CDT 7:18 PM CDT
Civil Twilight 7:09 AM CDT 7:42 PM CDT
Nautical Twilight 6:41 AM CDT 8:10 PM CDT
Astronomical Twilight 6:12 AM CDT 8:38 PM CDT
Moon 10:11 PM CDT (10/4) 11:36 AM CDT (10/4)
Length of Visible Light 12h 32m
Length of Day
11h 44m
Waning Gibbous, 82% of the Moon is Illuminated
Oct 4
Waning Gibbous
Oct 8
Last Quarter
Oct 15
New
Oct 21
First Quarter
Oct 29
Full

Hourly Weather History & Observations

Time (CDT) Temp. Heat Index Dew Point Humidity Pressure Visibility Wind Dir Wind Speed Gust Speed Precip Events Conditions
12:15 AM 65.1 °F - 57.2 °F 75% 30.00 in 10.0 mi South 6.9 mph - N/A   Clear
12:35 AM 64.9 °F - 57.0 °F 75% 30.00 in 10.0 mi South 4.6 mph - N/A   Clear
12:55 AM 64.8 °F - 56.7 °F 75% 30.00 in 10.0 mi SSE 4.6 mph - N/A   Clear
1:15 AM 64.2 °F - 56.8 °F 77% 30.00 in 10.0 mi SSE 5.8 mph - N/A   Clear
1:35 AM 64.6 °F - 56.8 °F 76% 30.00 in 10.0 mi SSE 5.8 mph - N/A   Clear
1:55 AM 64.6 °F - 56.8 °F 76% 30.00 in 10.0 mi SSE 6.9 mph - N/A   Clear
2:15 AM 64.0 °F - 57.0 °F 78% 30.00 in 10.0 mi SSE 6.9 mph - N/A   Clear
2:35 AM 63.9 °F - 57.2 °F 79% 30.00 in 10.0 mi SSE 5.8 mph - N/A   Clear
2:55 AM 63.7 °F - 57.2 °F 79% 30.00 in 10.0 mi SSE 6.9 mph - N/A   Clear
3:15 AM 63.9 °F - 57.6 °F 80% 30.00 in 10.0 mi SSE 6.9 mph - N/A   Clear
3:35 AM 63.7 °F - 57.7 °F 81% 30.00 in 10.0 mi SSE 8.1 mph - N/A   Clear
3:55 AM 63.5 °F - 58.1 °F 83% 29.99 in 10.0 mi SSE 8.1 mph - N/A   Clear
4:15 AM 62.4 °F - 57.7 °F 85% 30.00 in 10.0 mi ESE 4.6 mph - N/A   Clear
4:35 AM 61.7 °F - 57.7 °F 87% 30.00 in 10.0 mi ESE 5.8 mph - N/A   Clear
4:55 AM 61.9 °F - 58.1 °F 87% 30.00 in 10.0 mi SE 5.8 mph - N/A   Clear
5:15 AM 61.5 °F - 58.1 °F 89% 30.00 in 10.0 mi SE 4.6 mph - N/A   Clear
5:35 AM 61.3 °F - 58.1 °F 89% 30.01 in 10.0 mi SE 4.6 mph - N/A   Clear
5:55 AM 61.0 °F - 58.3 °F 91% 30.01 in 10.0 mi SSE 5.8 mph - N/A   Clear
6:15 AM 61.2 °F - 58.8 °F 92% 30.02 in 10.0 mi Calm Calm - N/A   Clear
6:35 AM 61.5 °F - 59.2 °F 92% 30.02 in 10.0 mi SE 3.5 mph - N/A   Scattered Clouds
6:55 AM 62.1 °F - 59.9 °F 93% 30.03 in 10.0 mi Calm Calm - N/A   Overcast
7:15 AM 63.1 °F - 61.0 °F 93% 30.03 in 10.0 mi Calm Calm - N/A   Overcast
7:35 AM 63.1 °F - 60.8 °F 92% 30.03 in 5.0 mi ESE 5.8 mph - N/A   Overcast
7:55 AM 63.0 °F - 61.2 °F 94% 30.04 in 5.0 mi SE 5.8 mph - N/A   Mostly Cloudy
8:15 AM 63.3 °F - 61.5 °F 94% 30.04 in 5.0 mi SE 3.5 mph - N/A   Mostly Cloudy
8:35 AM 64.8 °F - 63.0 °F 94% 30.05 in 5.0 mi SE 5.8 mph - N/A   Overcast
8:55 AM 66.2 °F - 64.0 °F 93% 30.06 in 5.0 mi SE 5.8 mph - N/A   Overcast
9:15 AM 67.5 °F - 65.1 °F 92% 30.07 in 7.0 mi SE 8.1 mph - N/A   Overcast
9:35 AM 68.5 °F - 65.5 °F 90% 30.09 in 7.0 mi Calm Calm - N/A   Overcast
9:55 AM 69.4 °F - 65.8 °F 88% 30.09 in 10.0 mi SSE 5.8 mph - N/A   Overcast
10:15 AM 70.7 °F - 66.2 °F 86% 30.09 in 10.0 mi South 5.8 mph - N/A   Overcast
10:55 AM 72.3 °F - 65.8 °F 80% 30.09 in 10.0 mi South 6.9 mph - N/A   Overcast
11:15 AM 72.9 °F - 65.7 °F 78% 30.10 in 10.0 mi South 8.1 mph - N/A   Overcast
11:35 AM 73.9 °F - 65.1 °F 74% 30.10 in 10.0 mi South 8.1 mph - N/A   Overcast
11:55 AM 74.3 °F - 65.1 °F 73% 30.11 in 10.0 mi South 5.8 mph - N/A   Overcast
12:15 PM 75.0 °F - 64.8 °F 70% 30.11 in 10.0 mi South 4.6 mph - N/A   Overcast
12:35 PM 75.4 °F - 64.6 °F 69% 30.11 in 10.0 mi SSW 3.5 mph - N/A   Overcast
12:55 PM 75.9 °F - 64.4 °F 67% 30.11 in 10.0 mi Calm Calm - N/A   Overcast
1:15 PM 76.3 °F - 64.2 °F 66% 30.11 in 10.0 mi Calm Calm - N/A   Overcast
1:35 PM 77.0 °F - 63.9 °F 64% 30.11 in 10.0 mi Calm Calm - N/A   Overcast
1:55 PM 78.1 °F - 63.7 °F 61% 30.10 in 10.0 mi North 3.5 mph - N/A   Overcast
2:15 PM 79.0 °F - 63.3 °F 59% 30.09 in 10.0 mi Calm Calm - N/A   Mostly Cloudy
2:35 PM 80.2 °F 81.6 °F 63.3 °F 56% 30.08 in 10.0 mi NW 4.6 mph - N/A   Scattered Clouds
2:55 PM 80.6 °F 82.0 °F 63.5 °F 56% 30.08 in 10.0 mi NNW 4.6 mph - N/A   Overcast
3:15 PM 80.4 °F 81.7 °F 63.1 °F 55% 30.08 in 10.0 mi Calm Calm - N/A   Overcast
3:35 PM 80.1 °F 81.4 °F 62.8 °F 55% 30.08 in 10.0 mi NNW 3.5 mph - N/A   Overcast
4:15 PM 80.8 °F 82.1 °F 63.1 °F 55% 30.08 in 10.0 mi North 3.5 mph - N/A   Mostly Cloudy
4:35 PM 80.6 °F 82.2 °F 63.9 °F 57% 30.08 in 10.0 mi North 4.6 mph - N/A   Scattered Clouds
4:55 PM 81.5 °F 82.9 °F 63.9 °F 55% 30.08 in 10.0 mi NNW 5.8 mph - N/A   Clear
5:15 PM 81.9 °F 83.2 °F 63.9 °F 54% 30.08 in 10.0 mi North 8.1 mph - N/A   Clear
5:35 PM 81.7 °F 83.2 °F 63.9 °F 55% 30.08 in 10.0 mi North 6.9 mph - N/A   Scattered Clouds
5:55 PM 79.9 °F - 62.2 °F 55% 30.08 in 10.0 mi North 15.0 mph - N/A   Clear
6:15 PM 75.6 °F - 59.0 °F 56% 30.09 in 10.0 mi North 13.8 mph 20.7 mph N/A   Clear
6:35 PM 73.2 °F - 57.4 °F 57% 30.09 in 10.0 mi North 15.0 mph - N/A   Clear
6:55 PM 71.1 °F - 55.9 °F 59% 30.10 in 10.0 mi North 15.0 mph 19.6 mph N/A   Clear
7:15 PM 68.7 °F - 54.3 °F 60% 30.10 in 10.0 mi North 15.0 mph 20.7 mph N/A   Clear
7:35 PM 67.1 °F - 53.2 °F 61% 30.11 in 10.0 mi North 13.8 mph 19.6 mph N/A   Clear
8:15 PM 64.9 °F - 52.5 °F 64% 30.12 in 10.0 mi North 12.7 mph - N/A   Clear
8:35 PM 64.2 °F - 52.2 °F 65% 30.12 in 10.0 mi North 12.7 mph 16.1 mph N/A   Clear
9:15 PM 63.1 °F - 52.5 °F 68% 30.13 in 10.0 mi North 10.4 mph - N/A   Clear
9:35 PM 62.6 °F - 52.2 °F 69% 30.13 in 10.0 mi North 9.2 mph - N/A   Clear
9:55 PM 62.1 °F - 52.2 °F 70% 30.13 in 10.0 mi North 9.2 mph - N/A   Clear
10:15 PM 61.5 °F - 51.8 °F 70% 30.14 in 10.0 mi North 10.4 mph - N/A   Clear
10:35 PM 61.0 °F - 51.4 °F 71% 30.14 in 10.0 mi North 9.2 mph - N/A   Clear
10:55 PM 60.4 °F - 51.3 °F 72% 30.15 in 10.0 mi North 8.1 mph - N/A   Clear
11:15 PM 59.9 °F - 50.9 °F 72% 30.15 in 10.0 mi North 10.4 mph - N/A   Clear
11:35 PM 59.4 °F - 50.7 °F 73% 30.15 in 10.0 mi North 9.2 mph - N/A   Clear
11:55 PM 59.0 °F - 50.4 °F 73% 30.15 in 10.0 mi North 10.4 mph - N/A   Clear